NOAA NWS Hourly Roundups by Site

Regional Weather Roundup for Bismarck, ND

To Select Another Site Choose from List

Select Site:  

000
ASUS43 KBIS 201110
RWRBIS

NWR BROADCAST TEXT
NATIONAL WEATHER SERVICE BISMARCK ND
600 AM CDT WED JUN 20 2018

NOTE: "FAIR" INDICATES FEW OR NO CLOUDS BELOW 12,000 FEET WITH NO
SIGNIFICANT WEATHER AND/OR OBSTRUCTIONS TO VISIBILITY.


CITY           SKY/WX    TMP DP  RH WIND       PRES   REMARKS
WILLISTON      CLEAR     51  49  92 CALM      30.10R
MINOT          CLEAR     57  52  83 W5        30.05F
MINOT AFB      PTCLDY    55  52  90 NW7       30.04S
BISMARCK       MOCLDY    58  53  84 CALM      30.05S
DICKINSON      CLOUDY    59  52  77 N6        30.07S
GARRISON         N/A     54  52  93 N7        30.06S
HETTINGER ARPT CLOUDY    59  53  80 N7        30.08R
JAMESTOWN      CLOUDY    56  54  93 N5        30.02S
CARRINGTON     FAIR      57  54  88 CALM      30.06S
HAZEN          FAIR      50  50 100 CALM      30.08S
LINTON           N/A     57  57 100 CALM      30.05S
MANDAN         FAIR      57  55  94 N7        30.06S
OAKES          FAIR      59  59 100 NW6       30.00S
RUGBY          FAIR      57  57 100 CALM      30.04F
STANLEY          N/A     55  54  94 N5        30.12R
TIOGA          FAIR      50  50 100 CALM      30.12R
WATFORD CITY   FAIR      52  52 100 CALM      30.09F
$$

CITY           SKY/WX    TMP DP  RH WIND       PRES   REMARKS
GRAND FORKS    MOCLDY    54  53  97 NW3       29.99S
GRAND FORKS AF FAIR      57  52  84 NW6       30.00S
DEVILS LAKE    FAIR      58  56  93 NW3       30.04F
FARGO          FAIR      59  55  87 NW3       29.98S
CANDO          FAIR      55  55 100 N5        30.06F
CAVALIER       FAIR      61  54  77 CALM      30.01S
GRAFTON        FAIR      61  54  77 NW9       30.02S
GWINNER          N/A     61  61 100 NW5       29.99S
LANGDON        FAIR      54  54 100 CALM      30.05F
ROLLA          FAIR      57  52  82 CALM      30.06F
WALHALLA       FAIR      59  59 100 W7        30.02F
$$

CITY           SKY/WX    TMP DP  RH WIND       PRES   REMARKS
ABERDEEN       MOCLDY    58  58 100 N5        30.00R
MOBRIDGE       CLOUDY    61  59  93 CALM      29.99S
BUFFALO          N/A     60  56  86 N10       30.02S
RAPID CITY     CLOUDY    56  55  97 N12       30.04F
GLASGOW        MOCLDY    56  51  84 NE8       30.12R
SIDNEY         PTCLDY    56  52  86 NW3       30.11R
WOLF POINT     MOCLDY    52  51  97 S5        30.12S
GLENDIVE       MOCLDY    57  55  93 N7        30.12R
MILES CITY     MOCLDY    56  56 100 NW5       30.11S
BAKER          CLOUDY    55  55 100 W5        30.11S
$$

CITY           SKY/WX    TMP DP  RH WIND       PRES   REMARKS
BILLINGS       MOCLDY    54  54 100 SW5       30.17R
GREAT FALLS    CLOUDY    55  54  96 SW5       30.18S
REGINA         PTCLDY    48  45  87 W5        30.12S
ESTEVAN        MOCLDY    52  50  93 N7        30.09S
$$



 

View Past Reports for Bismarck, ND.

Products Courtesy of NOAA-NWS
NWS Information Parsing Script by Ken True at Saratoga Weather - Script by SE Lincoln Weather.